Location: Antichan
(42.9728°N, 0.6667°E)
Time: 14:27:39
(UTC+00:00)

USA 267 - Pass Details

Date: 15 August 2020
Orbit: 1101 x 1106 km, 123.0° (Epoch: 22 September)

Event Time Altitude Azimuth Distance (km) Brightness Sun altitude
Rises 19:51:39 0° 56° (ENE) 3,928 5.9 -9.6°
Reaches altitude 10° 19:54:33 10° 68° (ENE) 2,967 5.2 -10.1°
Maximum altitude 20:00:03 28° 126° (SE) 1,925 4.0 -10.9°
Drops below altitude 10° 20:05:32 10° 183° (S) 2,956 5.2 -11.8°
Sets 20:08:24 0° 194° (SSW) 3,911 6.0 -12.2°
